Regional Weather Roundup
Issued by NWS State College, PA

Home | Current Version | Previous Version | Graphics & Text | Print | Product List | Glossary On
Versions: 1 2 3 4 5 6 7 8 9 10 11 12 13 14 15 16 17 18 19 20 21 22 23 24 25 26 27 28 29 30 31 32 33 34 35 36 37 38 39 40 41 42 43 44 45 46 47 48 49 50
000
ASUS41 KCTP 211010
RWRCTP

REGIONAL WEATHER ROUNDUP
NATIONAL WEATHER SERVICE STATE COLLEGE PA
600 AM EDT SUN SEP 21 2014

Note: "fair" indicates few or no clouds below 12,000 feet with no
significant weather and/or obstructions to visibility.

* = STATION THAT DOES NOT REPORT PRECIPITATION /E.G. RAIN...SNOW...ETC/
    THUNDER OR FOG.

PAZ002>004-007>009-013>016-020>023-029>032-211100-
WESTERN PENNSYLVANIA

CITY           SKY/WX    TMP DP  RH WIND       PRES   REMARKS
ERIE           LGT RAIN  70  62  76 S17G26    29.70F
MEADVILLE      LGT RAIN  67  62  84 S8G18     29.76F
FRANKLIN*      MOCLDY    66  61  82 S14       29.81F
NEW CASTLE     NOT AVBL
BEAVER COUNTY  NOT AVBL
BUTLER*        PTCLDY    66  61  82 S8        29.84F
PITTSBURGH INT PTCLDY    68  62  81 S9        29.82F
PITTSBURGH     NOT AVBL
INDIANA*       CLOUDY    64  61  88 SW3       29.89F
LATROBE        CLEAR     63  61  94 S6        29.86F
WASHINGTON CO* CLEAR     63  61  94 S3        29.85F
$$

PAZ004>006-010>012-017>019-024>028-033>037-041-042-045-046-049>053-211100-
CENTRAL PENNSYLVANIA

CITY           SKY/WX    TMP DP  RH WIND       PRES   REMARKS
BRADFORD       CLOUDY    63  59  87 S7        29.84F
DUBOIS         MOCLDY    64  60  87 SW7       29.84F
CLEARFIELD     MOCLDY    58  56  93 CALM      29.87F
JOHNSTOWN      PTCLDY    62  55  77 S10       29.90F
ALTOONA        PTCLDY    57  55  93 CALM      29.91S
STATE COLLEGE  CLEAR     57  54  88 SW6       29.88S
WILLIAMSPORT   PTCLDY    64  58  80 E9        29.86F
SELINSGROVE    CLEAR     56  54  93 N3        29.89F FOG
FT INDIANTOWN  FOG       57  57 100 E1        29.93R VSB 3/4
CAPITAL CITY   CLOUDY    61  59  93 S8        29.92R FOG
HARRISBURG     FOG       61  60  97 E6        29.92R VSB 1/2
YORK           CLEAR     55  54  96 CALM      29.92S FOG
$$

PAZ038>040-043-044-047-048-054-055-060>062-067>071-211100-
EASTERN PENNSYLVANIA

CITY           SKY/WX    TMP DP  RH WIND       PRES   REMARKS
SCRANTON       CLEAR     57  55  93 E3        29.90F
MOUNT POCONO   CLOUDY    58  56  93 S5        29.95S FOG
ALLENTOWN      CLOUDY    57  55  94 SE3       29.92F FOG
QUAKERTOWN*    CLOUDY    63  61  94 CALM      29.93S
READING        CLOUDY    57  55  93 CALM      29.91F FOG
LANCASTER      FOG       59  59 100 CALM      29.92S VSB 1/4
COATESVILLE    PTSUNNY   61  61 100 CALM      29.92F FOG
POTTSTOWN      MOCLDY    58  58 100 NE3       29.93S
BLUE BELL      MOCLDY    61  59  94 CALM      29.90F VSB 3/4
DOYLESTOWN     CLOUDY    63  63 100 CALM      29.91F
WILLOW GROVE   NOT AVBL
NORTH PHILA    CLOUDY    67  63  87 N3        29.92F
PHILADELPHIA   CLOUDY    67  65  93 E6        29.90F FOG
$$



USA.gov is the U.S. government's official web portal to all federal, state and local government web resources and services.